Location: Star Camp Observatory
(34.2910°N, 116.3827°W)
Time: 12:38:36
(UTC-07:00)

Envisat - Visible Passes

Search period start: 21 March 2019 00:00
Search period end: 31 March 2019 00:00
Orbit: 764 x 766 km, 98.2° (Epoch: 21 March)

Date Brightness Start Highest point End Pass type
(mag) Time Alt. Az. Time Alt. Az. Time Alt. Az.
21 Mar 5.7 20:35:49 10° SW 20:39:17 18° W 20:42:44 10° NW visible
22 Mar 4.3 19:57:31 10° S 20:02:20 43° W 20:07:10 10° NNW visible
23 Mar 3.0 19:20:30 10° SSE 19:25:34 78° ENE 19:30:39 10° N visible
24 Mar 5.4 20:23:57 10° SSW 20:27:58 24° W 20:32:01 10° NW visible
25 Mar 3.7 19:46:07 10° S 19:51:05 57° W 19:56:05 10° NNW visible
26 Mar 6.0 20:51:37 10° WSW 20:53:43 12° W 20:55:50 10° WNW visible
27 Mar 4.9 20:12:16 10° SSW 20:16:42 30° W 20:21:09 10° NW visible
28 Mar 3.3 19:34:49 10° S 19:39:52 74° WSW 19:44:57 10° NNW visible
29 Mar 5.8 20:39:15 10° SW 20:42:24 16° W 20:45:34 10° NW visible
30 Mar 4.5 20:00:43 10° SSW 20:05:26 39° W 20:10:11 10° NNW visible
